ATLAS 5 CENTAUR DEB, 49358

Orbit data source: Space-Track

ATLAS 5 CENTAUR DEB, 49358 is space debris in HEO originally from a launch on Wed, 17 Oct 2018 UTC launched from the Air Force Eastern Test Range (AFETR). Debris objects in space refer to the collection of defunct objects orbiting the Earth. Examples of debris include non-operational satellites, rocket bodies, and fragments generated from explosions, collisions, or faulty payload assembly.

Loading next visibility...
Identifier
49358, 2018-079FK
Orbit
HEO
Country
Flag of USUS
Related business
Flag of USUnited Launch Alliance/Lockheed Martin (US)
Manufacturer
ULA Decatur
Mission
Spacecraft
Bus & Motor
Unknown
Mass
Unknown
Launch date (UTC)
2018-10-17 (8 years ago)
Launch vehicle
Unknown
Launch site
Air Force Eastern Test Range (AFETR)
Object type
Payload
Rocket body
Debris
Shape & HBR
Unknown shape, 1.1 m
Radar Cross Section
Medium (>0.1 m² and <1 m²)

Expand to show TLE details & history
Last TLE update: 1 day ago

TLE from 1 day ago
0 ATLAS 5 CENTAUR DEB
1 49358U 18079FK  26126.99251459 -.00000139  00000-0  00000-0 0  9999
2 49358  13.3260  29.6504 4781878 328.9551  10.0599  1.83761597 31463
Epoch: 2026-05-06T23:49Z
TLE epoch observation values (Epoch: 2026-05-06T23:49:13.260Z)
Latitude
0.00002°
Longitude
167.46134°
Altitude
9,026.95 km
Speed
6.131 km/s
True Right ascension
01h 58m 26s
True Declination
0° 00' 00"
Sunlit
Object was in daylight at epoch
Visualization orbit readout
Latitude
Unknown
Longitude
Unknown
Altitude
Unknown
Speed
Unknown
Apparent Right ascension
Unknown
Apparent Declination
Unknown
Sunlit
N/A
Visualization observer readout
Local Sidereal Time
15:00:55
Azimuth
Unknown
Elevation
Unknown
Doppler factor
Unknown
Orbital elements
Apogee altitude
35,244.347 km
Perigee altitude
8,314.935 km
Semi-major axis
28,157.778 km
Eccentricity
0.47819
Inclination
13.326°
RAAN
29.6504°
Arg. of periapsis
328.9551°
True anomaly
31.40112°
Mean anomaly
10.0599°
Eccentric anomaly
18.96324°
Mean motion
0.45935 °/min
Orbital period
783.71 mins
BSTAR
0
Loading maneuver chart data...
Computing Atmospheric mass density...

Documentation

Showing up to 5 results
|